EHI
0 0 0 0 0 0 0 0 0 0 0 0 0 0 0 0 0 0 0 0 0 1 3 4 5 8 9 9 9 8 7 6 6 5 4 4 3 3 3 3 3 2 1 0 0 0 0 0 0
0 0 0 0 0 0 0 0 0 0 0 0 0 0 0 0 0 0 0 0 1 2 3 4 6 9 10 10 10 9 7 6 5 4 4 4 4 4 3 3 3 2 1 0 0 0 0 0 0
0 0 0 0 0 0 0 0 0 0 0 0 0 0 0 0 0 0 0 1 2 2 2 4 7 11 11 11 11 10 8 6 4 3 3 5 5 5 4 3 3 3 1 0 0 0 0 0 0
0 0 0 0 0 0 0 0 0 0 0 0 0 0 0 0 0 0 1 2 2 1 1 3 8 12 13 12 11 10 7 5 3 2 2 4 5 6 5 4 3 3 2 1 0 0 0 0 0
0 0 0 0 0 0 0 0 0 0 0 0 0 0 0 0 0 0 1 1 1 0 1 3 8 12 12 12 11 9 6 4 3 2 1 2 4 5 5 4 3 3 2 1 0 0 0 0 0
0 0 0 0 0 0 0 0 0 0 0 0 0 0 0 0 0 0 0 0 0 1 2 4 7 9 9 9 10 9 6 4 3 2 1 1 2 4 5 5 4 3 2 1 0 0 0 0 0
0 0 0 0 0 0 0 0 0 0 0 0 0 0 0 0 0 0 0 0 0 1 3 3 4 5 5 5 7 8 6 4 3 2 1 0 1 2 3 4 3 1 1 0 0 0 0 0 0
0 0 0 0 0 0 0 0 0 0 0 0 0 0 0 0 0 1 2 1 1 1 1 1 1 2 3 3 3 5 5 4 3 2 1 0 0 1 1 1 1 0 0 0 0 0 0 0 0
0 0 0 0 0 0 0 0 0 0 2 2 2 0 0 0 1 2 2 2 2 2 1 0 1 2 3 3 2 3 4 4 4 2 1 0 1 1 0 0 0 0 0 0 0 0 0 0 0
0 0 0 0 0 0 0 0 0 1 3 4 3 1 1 1 2 3 2 1 1 2 2 1 0 1 3 3 3 3 3 4 3 1 0 0 1 1 0 0 0 0 0 0 0 0 0 0 0
0 0 0 0 0 0 0 0 0 0 2 2 2 1 1 2 3 3 2 1 1 2 2 1 0 1 2 3 3 3 3 3 2 0 0 0 1 1 0 0 0 0 0 0 0 0 0 0 0
0 0 0 0 0 0 0 0 0 0 0 1 1 0 1 3 3 3 2 1 1 2 2 1 0 0 1 3 3 3 3 2 1 0 0 0 0 0 0 0 0 0 0 0 0 0 0 0 0
0 0 0 0 0 0 0 0 0 0 0 0 1 0 1 2 3 3 2 1 0 1 1 1 0 0 1 2 3 3 3 2 1 0 0 0 0 0 0 0 0 0 0 0 0 0 0 0 0
0 0 0 0 0 0 0 0 0 0 0 0 0 0 1 2 3 2 1 0 0 0 0 0 0 1 2 3 3 3 2 1 0 0 0 0 0 0 0 0 0 0 0 0 0 0 0 0 0
0 0 0 0 0 0 0 0 0 0 0 0 0 0 1 2 2 1 0 0 0 0 0 0 0 1 2 2 2 2 1 0 0 0 0 0 0 0 0 0 0 1 2 1 0 0 0 0 0
0 0 0 0 0 0 0 0 0 0 0 0 0 1 2 2 1 0 0 0 0 0 0 0 0 0 1 1 1 1 0 0 0 0 0 0 0 0 0 0 0 2 3 2 1 0 0 0 0
0 0 0 0 0 0 0 0 0 0 0 0 0 1 2 2 1 0 0 0 0 0 0 0 0 0 0 0 0 0 0 0 0 0 0 0 0 0 0 0 0 1 3 3 1 0 0 0 0
0 0 0 0 0 0 0 0 0 0 0 0 0 0 1 1 0 0 0 0 0 0 0 0 0 0 0 0 0 0 0 0 0 0 0 0 0 0 0 0 0 1 2 3 2 1 0 0 0
0 0 0 0 0 0 0 0 0 0 0 0 0 0 0 0 0 0 0 0 0 0 0 0 0 0 0 0 0 0 0 0 0 0 0 0 0 0 0 0 0 0 1 3 2 1 0 0 0
0 0 0 0 0 0 0 0 0 0 0 0 0 0 0 0 0 0 0 0 0 0 0 0 0 0 0 0 0 0 0 0 0 0 0 0 0 0 0 0 0 0 1 2 2 1 0 0 0
0 0 0 0 0 0 0 0 0 0 0 0 0 0 0 0 0 0 0 0 0 0 0 0 0 0 0 0 0 0 0 0 0 0 0 0 0 0 0 0 0 0 0 1 1 0 0 0 0
0 0 0 0 0 0 0 0 0 0 0 0 0 0 0 0 0 0 0 0 0 0 0 0 0 0 0 0 0 0 0 0 0 0 0 0 0 0 0 0 0 0 0 0 0 0 0 0 0
0 0 0 0 0 0 0 0 0 0 0 0 0 0 0 0 0 0 0 0 0 0 0 0 0 0 0 0 0 0 0 0 0 0 0 0 0 0 0 0 0 0 0 0 0 0 0 0 0
0 0 0 0 0 0 0 0 0 0 0 0 0 0 0 0 0 0 0 0 0 0 0 0 0 0 0 0 0 0 0 0 0 0 0 0 0 0 0 0 0 0 0 0 0 0 0 0 0
0 0 0 0 0 0 0 0 0 0 0 0 0 0 0 0 0 0 0 0 0 0 0 0 0 0 0 0 0 0 0 0 0 0 0 0 0 0 0 0 0 0 0 0 0 0 0 0 0
0 0 0 0 0 0 0 0 0 0 0 0 0 0 0 0 0 0 0 0 0 0 0 0 0 0 0 0 0 0 0 0 0 0 0 0 0 0 0 0 0 0 0 0 0 0 0 0 0
0 0 0 0 0 0 0 0 0 0 0 0 0 0 0 0 0 0 0 0 0 0 0 0 0 0 0 0 0 0 0 0 0 0 0 0 0 0 0 0 0 0 0 0 0 0 0 0 0
0 0 0 0 0 0 0 0 0 0 0 0 0 0 0 0 0 0 0 0 0 0 0 0 0 0 0 0 0 0 0 0 0 0 0 0 0 0 0 0 0 0 0 0 0 0 0 0 0
0 0 0 0 0 0 0 0 0 0 0 0 0 0 0 0 0 0 0 0 0 0 0 0 0 0 0 0 0 0 0 0 0 0 0 0 0 0 0 0 0 0 0 0 0 0 0 0 0
0 0 0 0 0 0 0 0 0 0 0 0 0 0 0 0 0 0 0 0 0 0 0 0 0 0 0 0 0 0 0 0 0 0 0 0 0 0 0 0 0 0 0 0 0 0 0 0 0
Wind_Speed
7 4 2 4 6 4 2 4 2 1 1 1 2 6 7 4 2 3 2 4 6 6 5 5 7 8 8 8 8 8 8 8 8 9 9 9 9 9 9 9 10 10 10 11 11 11 12 12 11
3 2 4 5 5 1 4 4 3 3 2 1 3 5 6 4 3 5 2 4 7 6 5 5 7 8 8 8 8 8 8 8 8 8 8 8 9 9 9 9 9 9 10 10 11 10 10 11 11
2 2 4 5 3 5 5 3 4 2 1 2 3 4 4 3 2 3 3 6 7 6 4 5 7 8 8 8 8 8 8 8 7 7 7 7 8 8 8 8 9 9 9 10 10 10 10 10 10
3 4 5 4 4 5 5 3 2 1 1 3 4 4 3 2 1 3 6 7 7 5 4 5 8 8 8 7 7 7 7 7 7 7 7 7 7 7 8 8 8 9 9 9 9 9 9 9 9
4 4 3 0 5 4 3 3 2 2 1 1 3 4 2 3 3 6 7 7 7 5 4 5 7 7 7 7 7 6 6 7 7 6 6 6 6 7 7 8 8 8 8 8 8 8 8 8 8
4 4 4 4 5 3 3 2 2 1 1 1 4 4 1 1 5 5 6 6 6 6 5 5 7 7 6 7 6 6 6 6 6 6 6 5 6 6 7 7 7 7 8 8 7 7 7 8 8
4 4 4 4 3 3 3 1 2 2 2 1 3 5 2 0 2 4 6 6 5 5 4 4 4 5 6 6 6 5 5 5 5 5 5 5 5 6 6 7 7 7 7 7 7 7 7 7 8
4 4 2 3 3 4 2 1 1 2 2 1 3 6 4 4 3 5 6 5 5 5 4 3 3 3 3 3 4 5 5 5 5 5 5 5 4 4 5 5 6 6 7 7 7 6 7 7 7
3 4 4 4 4 3 1 1 1 1 3 3 2 2 4 6 6 7 5 4 4 3 3 2 2 3 2 2 3 3 4 4 4 3 4 4 2 2 2 3 5 5 6 6 6 6 6 6 6
4 4 6 3 3 2 1 1 1 2 2 2 2 2 5 6 7 7 6 5 4 3 2 2 2 2 2 2 2 1 2 2 2 1 2 1 1 1 2 3 4 5 5 5 6 6 5 4 2
3 6 4 2 1 2 1 0 0 4 2 4 6 6 6 6 6 6 5 4 4 3 3 2 2 1 2 1 1 1 1 1 1 1 1 1 1 1 1 1 2 2 3 2 3 3 2 2 2
3 3 3 2 0 1 2 1 0 2 4 4 7 9 7 7 6 6 5 4 3 3 2 2 2 2 1 2 1 1 1 1 1 1 1 1 1 1 1 1 1 1 1 1 1 1 1 2 2
2 2 1 1 1 1 2 1 2 3 4 2 5 6 7 7 5 4 4 3 3 3 2 1 1 2 1 1 1 1 1 1 0 0 0 1 1 2 2 2 1 1 1 2 2 2 2 2 2
2 2 1 1 1 1 2 2 1 5 3 4 5 6 6 6 5 4 4 3 3 3 2 2 2 1 2 2 1 1 1 1 1 0 0 1 1 2 2 2 2 2 2 2 2 3 2 2 2
0 1 3 2 2 2 2 3 5 6 3 4 5 5 4 4 4 5 5 4 4 3 3 2 2 2 2 2 2 1 1 1 1 1 0 1 1 2 2 2 2 2 2 2 2 2 2 2 2
1 1 2 4 2 3 4 7 6 3 4 5 5 5 4 4 4 4 4 4 4 3 3 2 2 2 1 1 2 1 1 1 1 1 1 1 1 2 2 2 2 2 2 2 3 3 3 2 2
0 2 4 4 3 3 4 7 5 2 4 6 6 5 5 4 3 3 4 4 4 4 3 2 2 2 1 1 1 1 1 1 1 1 1 1 1 2 2 2 2 2 3 2 3 3 3 3 2
4 4 4 4 3 2 5 8 7 4 5 6 6 5 5 6 5 4 4 3 3 3 2 2 2 1 1 1 1 1 1 0 0 1 1 2 1 2 2 2 2 2 3 3 2 3 3 2 2
3 3 4 5 3 3 6 9 9 6 5 6 6 6 6 6 5 3 4 4 3 2 2 2 2 1 1 1 1 1 1 1 1 1 1 1 1 2 3 2 2 2 3 4 4 3 3 2 2
3 3 4 4 2 2 5 9 8 6 7 8 8 8 7 5 4 4 4 4 3 3 3 2 2 1 1 1 1 1 1 1 1 0 0 1 2 2 2 3 2 2 2 3 4 3 3 2 2
4 5 4 3 3 2 2 6 4 4 4 5 6 6 6 8 8 6 5 4 3 3 3 3 2 2 1 1 1 1 1 1 0 0 1 1 1 2 2 3 2 2 3 3 4 4 4 3 1
5 4 4 2 0 3 1 5 6 5 5 5 6 5 6 6 6 6 6 5 4 4 3 3 2 2 1 1 1 2 1 1 2 2 1 1 1 1 2 2 2 2 2 3 4 3 3 5 3
4 1 2 2 1 2 2 3 8 3 6 7 7 6 5 5 6 6 6 6 4 3 3 2 2 2 1 1 2 2 2 1 1 1 1 0 0 1 1 2 2 2 2 3 3 3 3 3 4
2 3 3 3 2 4 5 5 8 5 7 5 5 5 5 4 5 4 4 4 3 3 3 2 3 2 2 2 2 2 2 2 1 1 1 1 0 0 1 1 1 2 1 2 3 3 4 3 3
3 4 2 3 1 7 3 4 10 7 5 6 5 4 4 4 5 5 4 4 4 4 3 3 3 2 2 2 2 2 2 2 2 2 2 1 1 0 0 1 1 1 1 1 2 2 3 4 4
3 5 6 5 5 5 2 7 8 4 3 2 2 3 3 3 4 5 5 4 4 4 4 3 3 2 2 2 1 1 2 1 1 1 1 2 1 1 1 1 1 1 1 1 2 1 2 2 3
3 3 4 3 1 3 6 7 7 2 2 2 2 2 2 2 3 4 4 4 4 4 3 4 4 2 2 2 1 1 1 2 2 1 1 1 1 1 1 1 1 1 1 0 1 1 2 2 2
3 4 3 3 3 4 5 5 5 4 3 1 1 2 2 2 3 3 3 3 3 3 2 2 3 3 2 2 2 1 1 1 2 2 2 1 1 1 1 1 1 1 1 1 1 1 1 1 1
3 2 3 2 3 4 4 7 5 6 5 5 5 3 3 3 3 3 3 3 2 2 2 2 2 2 2 1 1 2 1 1 2 2 1 1 1 1 1 1 1 1 1 1 1 1 1 2 1
3 5 6 4 4 4 4 9 4 3 3 4 4 3 3 3 2 3 3 3 3 3 2 2 2 2 2 2 2 1 1 2 2 1 1 1 1 1 1 1 1 1 1 1 1 1 1 1 1
Wind_Direction
337 343 60 57 58 57 234 252 239 306 360 333 74 97 104 98 121 150 148 136 130 136 143 140 131 128 124 118 113 109 107 103 100 101 102 103 103 102 99 97 94 94 97 97 96 95 94 93 90
342 8 57 62 93 149 255 248 237 239 204 146 69 79 81 76 76 107 118 136 130 129 130 134 128 127 124 120 115 111 109 107 104 103 106 106 105 105 103 101 99 97 96 98 97 97 96 96 92
336 61 83 82 135 188 217 225 211 244 279 98 65 55 88 103 111 140 153 139 122 119 122 132 127 127 125 122 119 117 115 113 110 107 106 107 105 108 109 107 104 103 101 98 98 98 98 97 95
61 55 61 90 211 224 211 215 201 161 17 61 102 70 57 33 157 151 136 130 122 120 117 125 124 125 123 123 121 119 118 119 116 112 108 110 110 111 113 110 108 107 106 103 101 101 101 99 96
66 82 83 184 238 248 242 233 191 161 150 72 104 102 66 350 82 115 123 123 123 122 119 122 118 122 121 122 124 124 122 120 118 115 114 114 115 114 118 113 112 111 111 110 107 103 103 103 98
67 78 115 213 237 255 261 241 176 139 121 93 105 108 109 28 97 116 118 111 115 121 120 119 113 111 114 117 120 121 125 122 121 120 119 116 118 118 120 120 119 119 117 115 112 108 103 105 104
115 117 174 202 217 246 245 200 157 157 116 139 131 118 134 162 119 115 109 105 100 101 109 108 110 104 102 107 111 112 116 120 120 121 116 109 107 119 120 125 123 123 123 121 117 112 106 103 107
133 119 184 214 203 235 245 120 135 142 148 55 98 136 174 195 141 108 99 97 98 92 93 100 98 98 96 103 106 105 111 115 112 108 103 96 99 116 119 124 125 126 125 124 121 115 108 99 99
101 100 201 212 199 223 262 93 14 66 93 50 52 148 170 148 126 107 97 84 93 97 95 93 98 105 103 104 98 91 97 100 99 100 102 96 92 113 122 121 129 132 132 130 126 121 113 96 91
104 166 213 216 195 190 221 136 168 86 73 69 49 56 114 129 127 128 133 134 133 139 135 110 102 111 105 103 84 67 71 74 79 84 98 94 95 107 123 121 127 129 129 131 129 122 109 94 85
154 191 210 245 223 154 150 354 72 136 187 191 171 163 149 140 139 145 150 152 156 159 152 132 125 115 111 95 86 67 60 61 61 76 102 99 95 95 100 119 126 130 125 131 129 115 100 106 107
166 232 201 222 207 121 157 149 51 181 214 195 169 161 157 154 163 167 164 161 147 137 140 141 133 122 121 108 94 91 83 74 58 49 119 126 122 123 133 130 141 140 137 133 133 131 128 121 120
208 237 240 218 97 127 120 197 191 235 228 180 146 148 158 162 163 165 157 152 143 140 139 142 148 143 136 114 111 105 106 101 84 44 96 147 151 161 160 157 153 157 149 150 153 147 143 137 132
207 210 260 262 229 230 167 241 198 243 201 152 151 166 171 169 165 156 154 157 159 154 151 153 146 158 147 138 136 137 135 132 118 111 282 157 170 175 170 165 166 173 168 164 162 158 148 147 138
126 39 319 269 215 210 140 286 231 233 165 165 181 187 182 179 169 170 175 168 168 156 150 151 141 132 144 151 159 150 153 149 154 189 220 177 178 172 174 174 178 189 178 165 153 148 131 127 127
60 93 264 268 207 185 151 248 249 223 167 194 204 198 184 188 183 180 174 163 159 147 148 161 135 125 140 163 161 153 158 162 177 189 198 188 187 172 163 172 191 191 170 161 157 150 132 125 120
34 210 227 269 227 174 180 241 254 224 187 213 218 206 194 187 187 182 174 166 159 155 153 154 146 154 159 158 143 139 147 163 185 194 186 200 201 181 166 172 183 177 161 159 161 145 139 137 127
212 214 221 229 249 181 215 246 259 248 212 224 225 216 202 198 205 187 170 159 149 148 145 143 144 159 154 121 98 87 75 53 202 210 217 203 198 183 166 165 167 175 157 150 151 143 137 145 142
194 204 240 249 249 215 235 249 257 247 232 230 228 223 214 210 208 179 164 152 142 135 130 142 146 161 150 145 147 164 210 254 260 222 217 199 201 175 164 161 162 167 165 160 158 150 140 124 120
223 233 259 279 281 238 257 264 261 241 228 224 220 220 218 210 199 187 175 162 164 165 162 162 168 169 179 188 193 193 204 224 229 261 249 203 192 174 158 155 164 165 164 154 153 144 144 134 122
233 220 233 256 328 335 309 291 260 255 234 230 221 216 211 202 198 192 185 182 168 170 179 179 183 176 185 171 116 99 64 32 47 293 247 227 194 157 148 154 155 164 170 171 166 160 151 157 147
241 233 214 209 56 282 186 280 270 249 251 235 227 222 217 206 195 189 182 181 184 184 177 170 165 160 176 164 149 165 173 209 230 227 223 215 185 150 148 148 152 166 167 166 171 164 158 155 159
219 218 186 199 194 286 241 233 278 260 245 241 229 223 219 204 189 185 183 181 176 164 159 163 151 151 154 158 168 173 180 204 234 231 166 185 196 152 149 160 160 166 167 168 171 163 156 159 165
162 55 35 42 81 263 229 203 271 234 227 235 228 223 215 196 179 172 163 150 145 142 143 147 146 152 149 148 157 166 167 169 155 159 167 186 217 212 140 148 164 167 158 165 180 175 169 171 164
94 98 33 344 314 250 222 213 251 249 239 224 223 219 206 180 167 160 153 151 146 145 148 150 149 153 157 152 164 176 171 172 176 182 178 171 174 207 186 145 158 178 167 152 156 170 179 180 174
190 154 170 205 227 273 274 234 254 274 280 245 190 175 165 162 164 164 163 159 157 157 152 151 155 161 166 164 174 172 162 171 168 169 168 177 186 194 165 146 150 168 157 141 148 162 177 178 186
162 197 183 150 211 265 264 277 296 311 356 23 65 99 149 169 163 163 162 160 162 163 167 169 164 159 162 170 166 157 148 134 137 140 133 133 151 139 129 121 112 100 96 121 157 155 174 178 194
166 156 116 145 186 252 276 264 254 254 249 259 210 182 192 182 162 163 167 169 169 168 162 155 152 152 147 144 147 132 123 116 118 119 120 119 117 109 123 114 104 87 81 92 113 129 142 155 187
173 165 158 166 183 190 254 263 240 230 215 207 214 207 195 193 181 176 179 177 166 152 145 147 147 137 132 136 124 113 122 112 97 100 115 135 124 121 147 136 119 109 100 107 125 122 137 144 124
199 192 165 180 227 205 226 267 281 244 216 200 213 216 199 192 190 187 179 167 164 167 166 169 163 155 153 137 121 129 125 109 100 94 92 103 110 116 124 111 112 119 118 122 129 125 111 149 161